Location: Contre
(49.7477°N, 2.0963°E)
Time: 15:27:53
(UTC+00:00)

SJ-6B - Visible Passes

Search period start: 30 September 2023 00:00
Search period end: 10 October 2023 00:00
Orbit: 499 x 561 km, 97.5° (Epoch: 29 September)

Date Brightness Start Highest point End Pass type
(mag) Time Alt. Az. Time Alt. Az. Time Alt. Az.
30 Sep 3.6 18:27:23 10° SE 18:31:00 33° ENE 18:34:37 10° N visible
30 Sep 4.9 20:02:00 10° SSW 20:05:24 26° W 20:08:47 10° NW visible
01 Oct 3.9 18:17:16 10° SE 18:20:39 27° ENE 18:24:02 10° N visible
01 Oct 4.5 19:51:30 11° SSW 19:54:54 32° W 19:58:32 10° NNW visible
02 Oct 4.1 18:07:12 10° ESE 18:10:17 22° ENE 18:13:22 10° NNE visible
02 Oct 4.0 19:41:10 14° SSW 19:44:24 41° W 19:48:12 10° NNW visible
03 Oct 4.4 17:57:14 10° ESE 17:59:56 18° ENE 18:02:37 10° NNE visible
03 Oct 3.5 19:30:50 16° S 19:33:55 53° W 19:37:50 10° NNW visible
04 Oct 3.0 19:20:29 18° S 19:23:26 70° WSW 19:27:24 10° NNW visible
05 Oct 2.7 19:10:07 19° SSE 19:12:57 90° WSW 19:16:55 10° NNW visible
06 Oct 2.7 18:59:45 20° SSE 19:02:27 70° ENE 19:06:24 10° N visible
06 Oct 5.8 20:35:29 10° WSW 20:37:15 13° W 20:39:00 10° WNW visible
07 Oct 2.9 18:49:22 19° SE 18:51:59 54° ENE 18:55:50 10° N visible
07 Oct 5.6 20:24:40 12° WSW 20:26:37 16° W 20:29:07 10° NW visible
08 Oct 3.2 18:38:58 18° SE 18:41:30 42° ENE 18:45:13 10° N visible
08 Oct 5.3 20:14:17 15° SW 20:16:01 20° W 20:18:58 10° NW visible
09 Oct 3.5 18:28:34 17° ESE 18:31:01 33° ENE 18:34:33 10° N visible
09 Oct 4.9 20:03:52 20° SW 20:05:24 25° W 20:08:42 10° NW visible
